ONEWEB-0691

operational
NORAD ID: 61599 Int'l Des: 2024-188 Owner: ONEWEBE Country: UK Constellation: oneweb
LEOCIRCULARPOLARONEWEB_TYPE

ONEWEB-0691について

説明を読み込み中...

リアルタイム位置

3D地球を読み込み中...

次回通過

高度履歴

Altitude vs Time

uPlot chart will show altitude changes over time

軌道要素

1 61599U 24188F 25251.50819261 .00000602 00000-0 16613-2 0 9997
2 61599 87.8704 77.1171 0002074 83.2241 276.9123 13.11417614 47564
Epoch: Sep 8, 2025 • Age: 15 hours

現在のステータス

高度 1229.8 km
速度 7.25 km/s
衛星直下点 82.25°N, 157.33°W
打ち上げ日 Oct 20, 2024
運用期間 0.8 years
タイプ internet

技術仕様

分類 Payload
質量 148.00 kg
乾燥質量 140.00 kg
総質量 148.00 kg
長さ 1.30 m
直径 1.00 m
スパン 5.00 m
形状 Trapezoid+2 pan
製造者 ONEWUS
バスタイプ ARROW
フェーズステータス In Orbit
所有者/国 ONEWEBE/UK

大規模コンステレーション

Loading constellations...